This demonstration page uses our WeatherBlox Daily Observations layout. Learn more.

Left ArrowRight Arrow

34.74481, -87.66753

Hourly Observations for January 1, 2020

Temp ( °F °C ) Dew Point ( °F °C ) Humidity (%) Winds ( mph kmh ) Pressure ( in mb ) Visibility ( mi km ) Precip ( " mm )
12:53 am 00:53 Clear 36 2.2 29 -1.7 76 76 SSW 3 6 30.06 1018 10 16 0.00 0.00
1:53 am 01:53 Clear 36 2.2 29 -1.7 76 76 Calm 30.06 1018 10 16 0.00 0.00
2:53 am 02:53 Clear 35 1.7 27 -2.8 72 72 Calm 30.06 1018 10 16 0.00 0.00
3:53 am 03:53 Clear 37 2.8 27 -2.8 67 67 W 5 7 30.07 1018 10 16 0.00 0.00
4:53 am 04:53 Clear 36 2.2 26 -3.3 67 67 WNW 3 6 30.08 1019 10 16 0.00 0.00
5:53 am 05:53 Clear 35 1.7 26 -3.3 70 70 Calm 30.09 1019 10 16 0.00 0.00
6:53 am 06:53 Clear 33 0.6 27 -2.8 78 78 SSE 3 6 30.10 1019 10 16 0.00 0.00
7:53 am 07:53 Sunny 34 1.1 29 -1.7 82 82 Calm 30.10 1019 10 16 0.00 0.00
8:53 am 08:53 Sunny 40 4.4 31 -0.6 70 70 Calm 30.11 1020 10 16 0.00 0.00
9:53 am 09:53 Sunny 46 7.8 30 -1.1 54 54 Calm 30.11 1020 10 16 0.00 0.00
10:53 am 10:53 Sunny 50 10 28 -2.2 43 43 VRB 3 6 30.09 1019 10 16 0.00 0.00
11:53 am 11:53 Sunny 53 11.7 24 -4.4 32 32 Calm 30.04 1017 10 16 0.00 0.00
12:53 pm 12:53 Sunny 53 11.7 22 -5.6 30 30 VRB 3 6 30.01 1016 10 16 0.00 0.00
1:53 pm 13:53 Sunny 54 12.2 25 -3.9 33 33 ESE 3 6 29.98 1015 10 16 0.00 0.00
2:53 pm 14:53 Sunny 54 12.2 28 -2.2 37 37 ENE 3 6 29.97 1015 10 16 0.00 0.00
3:53 pm 15:53 Sunny 56 13.3 23 -5 28 28 S 5 7 29.98 1015 10 16 0.00 0.00
4:53 pm 16:53 Clear 51 10.6 29 -1.7 43 43 SSE 8 13 29.95 1014 10 16 0.00 0.00
5:53 pm 17:53 Clear 51 10.6 28 -2.2 41 41 S 8 13 29.96 1015 10 16 0.00 0.00
6:53 pm 18:53 Clear 50 10 30 -1.1 46 46 S 5 7 29.97 1015 10 16 0.00 0.00
7:53 pm 19:53 Clear 49 9.4 30 -1.1 48 48 S 8 13 29.98 1015 10 16 0.00 0.00
8:53 pm 20:53 Mostly Clear 49 9.4 30 -1.1 48 48 S 8 13 29.96 1015 10 16 0.00 0.00
9:53 pm 21:53 Cloudy 50 10 30 -1.1 46 46 S 6 9 29.96 1015 10 16 0.00 0.00
10:53 pm 22:53 Cloudy 50 10 30 -1.1 46 46 S 6 9 29.94 1014 10 16 0.00 0.00
11:53 pm 23:53 Cloudy 50 10 31 -0.6 48 48 S 6 9 29.93 1014 10 16 0.00 0.00

Powered by AerisWeather